contact: severine.martini@mio.osupytheas.fr, dominique.lefevre@mio.osupytheas.fr
Project:EMSO Ligure-ouest http://www.emso-fr.org/EMSO-France
Sensor Microcat Sea-Bird SBE37 SMP,  Serial 57510 
DOI : "https://doi.org/10.17882/97948" 
Title:EMSO Ligure Ouest : Data Bathybot capteur Microcat - deploiement 2023-04-28
Datetime,Profondeur,Latitude,Longitude,Temperature,Conductivite,Pression,Salinite
time,m,degree_north,degree_east,degree_C,S/m,db,PSU 
2024-01-26T08:03:49,2420,42.8014,5.9826,13.2991,4.59915,2453.853,38.4863
2024-01-26T08:06:49,2420,42.8014,5.9826,13.2992,4.59916,2453.793,38.4862
2024-01-26T08:09:49,2420,42.8014,5.9826,13.2987,4.59917,2453.770,38.4868
2024-01-26T08:12:49,2420,42.8014,5.9826,13.2991,4.59917,2453.770,38.4866
2024-01-26T08:15:49,2420,42.8014,5.9826,13.2991,4.59918,2453.785,38.4866
2024-01-26T08:18:50,2420,42.8014,5.9826,13.2993,4.59918,2453.740,38.4864
2024-01-26T08:21:49,2420,42.8014,5.9826,13.2993,4.59917,2453.762,38.4863
2024-01-26T08:24:49,2420,42.8014,5.9826,13.2996,4.59917,2453.740,38.4860
2024-01-26T08:27:49,2420,42.8014,5.9826,13.2986,4.59918,2453.740,38.4871
2024-01-26T08:30:49,2420,42.8014,5.9826,13.2991,4.59919,2453.740,38.4866
2024-01-26T08:33:49,2420,42.8014,5.9826,13.2989,4.59918,2453.762,38.4868
2024-01-26T08:36:49,2420,42.8014,5.9826,13.2990,4.59921,2453.762,38.4870
2024-01-26T08:39:49,2420,42.8014,5.9826,13.2991,4.59918,2453.740,38.4866
2024-01-26T08:42:49,2420,42.8014,5.9826,13.2989,4.59918,2453.740,38.4868
2024-01-26T08:45:49,2420,42.8014,5.9826,13.2991,4.59920,2453.725,38.4868
2024-01-26T08:48:49,2420,42.8014,5.9826,13.2987,4.59919,2453.740,38.4871
2024-01-26T08:51:49,2420,42.8014,5.9826,13.2988,4.59923,2453.717,38.4874
2024-01-26T08:54:49,2420,42.8014,5.9826,13.2989,4.59921,2453.762,38.4871
2024-01-26T08:57:49,2420,42.8014,5.9826,13.2991,4.59919,2453.762,38.4866
2024-01-26T09:00:49,2420,42.8014,5.9826,13.2988,4.59921,2453.740,38.4871
2024-01-26T09:03:49,2420,42.8014,5.9826,13.2994,4.59920,2453.740,38.4865
2024-01-26T09:06:49,2420,42.8014,5.9826,13.2993,4.59922,2453.748,38.4868
2024-01-26T09:09:49,2420,42.8014,5.9826,13.2989,4.59919,2453.717,38.4869
2024-01-26T09:12:49,2420,42.8014,5.9826,13.2993,4.59919,2453.762,38.4865
2024-01-26T09:15:49,2420,42.8014,5.9826,13.2991,4.59926,2453.740,38.4873
2024-01-26T09:18:49,2420,42.8014,5.9826,13.2989,4.59920,2453.740,38.4870
2024-01-26T09:21:49,2420,42.8014,5.9826,13.2991,4.59920,2453.762,38.4868
2024-01-26T09:24:49,2420,42.8014,5.9826,13.2987,4.59918,2453.762,38.4870
2024-01-26T09:27:49,2420,42.8014,5.9826,13.2988,4.59921,2453.740,38.4871
2024-01-26T09:30:49,2420,42.8014,5.9826,13.2990,4.59922,2453.762,38.4870
2024-01-26T09:33:49,2420,42.8014,5.9826,13.2993,4.59919,2453.762,38.4865
2024-01-26T09:36:49,2420,42.8014,5.9826,13.2992,4.59919,2453.740,38.4866
2024-01-26T09:39:49,2420,42.8014,5.9826,13.2990,4.59918,2453.717,38.4867
2024-01-26T09:42:49,2420,42.8014,5.9826,13.2989,4.59921,2453.725,38.4871
2024-01-26T09:45:49,2420,42.8014,5.9826,13.2989,4.59925,2453.762,38.4874
2024-01-26T09:48:49,2420,42.8014,5.9826,13.2988,4.59919,2453.762,38.4870
2024-01-26T09:51:49,2420,42.8014,5.9826,13.2991,4.59919,2453.740,38.4867
2024-01-26T09:54:49,2420,42.8014,5.9826,13.2988,4.59919,2453.777,38.4870
2024-01-26T09:57:49,2420,42.8014,5.9826,13.2990,4.59922,2453.740,38.4870
2024-01-26T10:00:49,2420,42.8014,5.9826,13.2997,4.59920,2453.740,38.4862
2024-01-26T10:03:49,2420,42.8014,5.9826,13.3000,4.59938,2453.740,38.4876
2024-01-26T10:06:49,2420,42.8014,5.9826,13.2991,4.59926,2453.717,38.4874
2024-01-26T10:09:49,2420,42.8014,5.9826,13.2990,4.59919,2453.740,38.4868
2024-01-26T10:12:49,2420,42.8014,5.9826,13.3004,4.59920,2453.740,38.4855
2024-01-26T10:15:49,2420,42.8014,5.9826,13.2988,4.59924,2453.695,38.4875
2024-01-26T10:18:49,2420,42.8014,5.9826,13.2992,4.59926,2453.762,38.4872
2024-01-26T10:21:49,2420,42.8014,5.9826,13.2990,4.59920,2453.740,38.4869
2024-01-26T10:24:49,2420,42.8014,5.9826,13.2991,4.59919,2453.732,38.4867
2024-01-26T10:27:49,2420,42.8014,5.9826,13.2996,4.59920,2453.717,38.4863
2024-01-26T10:30:49,2420,42.8014,5.9826,13.2989,4.59922,2453.717,38.4871
2024-01-26T10:33:49,2420,42.8014,5.9826,13.2991,4.59926,2453.740,38.4873
2024-01-26T10:36:49,2420,42.8014,5.9826,13.2988,4.59927,2453.717,38.4877
2024-01-26T10:39:49,2420,42.8014,5.9826,13.2997,4.59925,2453.732,38.4867
2024-01-26T10:42:49,2420,42.8014,5.9826,13.2991,4.59931,2453.740,38.4878
2024-01-26T10:45:49,2420,42.8014,5.9826,13.2991,4.59920,2453.717,38.4868
2024-01-26T10:48:49,2420,42.8014,5.9826,13.3005,4.59943,2453.672,38.4875
2024-01-26T10:51:49,2420,42.8014,5.9826,13.2998,4.59926,2453.695,38.4867
2024-01-26T10:54:49,2420,42.8014,5.9826,13.2993,4.59922,2453.709,38.4867
2024-01-26T10:57:49,2420,42.8014,5.9826,13.2989,4.59920,2453.695,38.4870
2024-01-26T11:00:49,2420,42.8014,5.9826,13.3000,4.59931,2453.672,38.4870
2024-01-26T11:03:49,2420,42.8014,5.9826,13.2993,4.59920,2453.695,38.4866
2024-01-26T11:06:49,2420,42.8014,5.9826,13.2997,4.59924,2453.672,38.4866
2024-01-26T11:09:49,2420,42.8014,5.9826,13.3000,4.59925,2453.672,38.4863
2024-01-26T11:12:49,2420,42.8014,5.9826,13.2996,4.59926,2453.672,38.4869
2024-01-26T11:15:49,2420,42.8014,5.9826,13.2988,4.59923,2453.649,38.4873
2024-01-26T11:18:49,2420,42.8014,5.9826,13.2996,4.59925,2453.657,38.4867
2024-01-26T11:21:49,2420,42.8014,5.9826,13.2993,4.59928,2453.695,38.4873
2024-01-26T11:24:49,2420,42.8014,5.9826,13.2989,4.59919,2453.672,38.4869
2024-01-26T11:27:49,2420,42.8014,5.9826,13.2991,4.59921,2453.649,38.4869
2024-01-26T11:30:49,2420,42.8014,5.9826,13.3022,4.59927,2453.627,38.4844
2024-01-26T11:33:49,2420,42.8014,5.9826,13.2992,4.59923,2453.649,38.4870
2024-01-26T11:36:49,2420,42.8014,5.9826,13.2993,4.59926,2453.672,38.4872
2024-01-26T11:39:49,2420,42.8014,5.9826,13.2992,4.59926,2453.641,38.4873
2024-01-26T11:42:49,2420,42.8014,5.9826,13.2994,4.59924,2453.657,38.4869
2024-01-26T11:45:49,2420,42.8014,5.9826,13.2985,4.59920,2453.672,38.4874
2024-01-26T11:48:49,2420,42.8014,5.9826,13.3007,4.59923,2453.672,38.4855
2024-01-26T11:51:49,2420,42.8014,5.9826,13.2993,4.59920,2453.649,38.4867
2024-01-26T11:54:49,2420,42.8014,5.9826,13.2998,4.59932,2453.649,38.4872
2024-01-26T11:57:49,2420,42.8014,5.9826,13.2991,4.59920,2453.649,38.4868
2024-01-26T12:00:49,2420,42.8014,5.9826,13.2988,4.59923,2453.627,38.4874
2024-01-26T12:03:49,2420,42.8014,5.9826,13.2991,4.59920,2453.656,38.4868
2024-01-26T12:06:49,2420,42.8014,5.9826,13.2997,4.59923,2453.649,38.4865
2024-01-26T12:09:49,2420,42.8014,5.9826,13.3012,4.59936,2453.649,38.4862
2024-01-26T12:12:49,2420,42.8014,5.9826,13.3004,4.59921,2453.627,38.4856
2024-01-26T12:15:49,2420,42.8014,5.9826,13.2991,4.59926,2453.604,38.4874
2024-01-26T12:18:49,2420,42.8014,5.9826,13.3000,4.59930,2453.627,38.4869
2024-01-26T12:21:49,2420,42.8014,5.9826,13.3004,4.59937,2453.604,38.4871
2024-01-26T12:24:49,2420,42.8014,5.9826,13.2995,4.59925,2453.604,38.4869
2024-01-26T12:27:49,2420,42.8014,5.9826,13.2991,4.59926,2453.604,38.4873
2024-01-26T12:30:49,2420,42.8014,5.9826,13.2990,4.59922,2453.627,38.4871
2024-01-26T12:33:49,2420,42.8014,5.9826,13.2993,4.59925,2453.627,38.4871
2024-01-26T12:36:49,2420,42.8014,5.9826,13.2993,4.59926,2453.596,38.4871
2024-01-26T12:39:49,2420,42.8014,5.9826,13.2988,4.59922,2453.604,38.4873
2024-01-26T12:42:49,2420,42.8014,5.9826,13.2990,4.59925,2453.627,38.4874
2024-01-26T12:45:49,2420,42.8014,5.9826,13.3008,4.59926,2453.619,38.4857
2024-01-26T12:48:49,2420,42.8014,5.9826,13.2989,4.59926,2453.604,38.4875
2024-01-26T12:51:49,2420,42.8014,5.9826,13.2991,4.59928,2453.582,38.4875
2024-01-26T12:54:49,2420,42.8014,5.9826,13.2990,4.59928,2453.582,38.4877
2024-01-26T12:57:49,2420,42.8014,5.9826,13.2992,4.59923,2453.641,38.4870
2024-01-26T13:00:49,2420,42.8014,5.9826,13.2993,4.59920,2453.582,38.4866
2024-01-26T13:03:49,2420,42.8014,5.9826,13.2991,4.59927,2453.604,38.4875
2024-01-26T13:06:49,2420,42.8014,5.9826,13.2989,4.59926,2453.596,38.4876
2024-01-26T13:09:49,2420,42.8014,5.9826,13.2990,4.59922,2453.604,38.4871
2024-01-26T13:12:49,2420,42.8014,5.9826,13.2994,4.59928,2453.544,38.4873
2024-01-26T13:15:49,2420,42.8014,5.9826,13.2991,4.59923,2453.596,38.4872
2024-01-26T13:18:49,2420,42.8014,5.9826,13.2991,4.59924,2453.604,38.4872
2024-01-26T13:21:49,2420,42.8014,5.9826,13.2989,4.59922,2453.582,38.4872
2024-01-26T13:24:49,2420,42.8014,5.9826,13.2996,4.59927,2453.559,38.4870
2024-01-26T13:27:49,2420,42.8014,5.9826,13.3021,4.59936,2453.559,38.4853
2024-01-26T13:30:49,2420,42.8014,5.9826,13.2991,4.59922,2453.559,38.4871
2024-01-26T13:33:49,2420,42.8014,5.9826,13.2991,4.59922,2453.582,38.4870
2024-01-26T13:36:49,2420,42.8014,5.9826,13.2991,4.59925,2453.582,38.4873
2024-01-26T13:39:49,2420,42.8014,5.9826,13.2991,4.59922,2453.559,38.4871
2024-01-26T13:42:49,2420,42.8014,5.9826,13.3009,4.59925,2453.559,38.4855
2024-01-26T13:45:49,2420,42.8014,5.9826,13.2990,4.59923,2453.559,38.4872
2024-01-26T13:48:49,2420,42.8014,5.9826,13.2992,4.59922,2453.559,38.4869
2024-01-26T13:51:49,2420,42.8014,5.9826,13.2995,4.59920,2453.574,38.4865
2024-01-26T13:54:49,2420,42.8014,5.9826,13.2989,4.59924,2453.559,38.4874
2024-01-26T13:57:49,2420,42.8014,5.9826,13.2991,4.59922,2453.567,38.4870
2024-01-26T14:00:50,2420,42.8014,5.9826,13.2991,4.59924,2453.537,38.4873
2024-01-26T14:03:49,2420,42.8014,5.9826,13.2986,4.59921,2453.537,38.4874
2024-01-26T14:06:49,2420,42.8014,5.9826,13.2992,4.59923,2453.559,38.4870
2024-01-26T14:09:49,2420,42.8014,5.9826,13.2993,4.59922,2453.537,38.4868
2024-01-26T14:12:49,2420,42.8014,5.9826,13.2993,4.59921,2453.537,38.4867
2024-01-26T14:15:49,2420,42.8014,5.9826,13.2992,4.59925,2453.537,38.4872
2024-01-26T14:18:49,2420,42.8014,5.9826,13.2989,4.59923,2453.559,38.4873
2024-01-26T14:21:49,2420,42.8014,5.9826,13.2993,4.59926,2453.537,38.4872
2024-01-26T14:24:49,2420,42.8014,5.9826,13.2993,4.59926,2453.559,38.4872
2024-01-26T14:27:49,2420,42.8014,5.9826,13.2993,4.59926,2453.537,38.4872
2024-01-26T14:30:49,2420,42.8014,5.9826,13.2990,4.59926,2453.537,38.4875
2024-01-26T14:33:49,2420,42.8014,5.9826,13.2993,4.59925,2453.537,38.4871
2024-01-26T14:36:49,2420,42.8014,5.9826,13.2989,4.59918,2453.522,38.4869
2024-01-26T14:39:49,2420,42.8014,5.9826,13.2991,4.59920,2453.537,38.4868
2024-01-26T14:42:49,2420,42.8014,5.9826,13.2992,4.59922,2453.537,38.4869
2024-01-26T14:45:49,2420,42.8014,5.9826,13.2992,4.59919,2453.514,38.4866
2024-01-26T14:48:49,2420,42.8014,5.9826,13.2991,4.59921,2453.537,38.4870
2024-01-26T14:51:49,2420,42.8014,5.9826,13.2990,4.59924,2453.574,38.4873
2024-01-26T14:54:49,2420,42.8014,5.9826,13.2991,4.59926,2453.559,38.4874
2024-01-26T14:57:49,2420,42.8014,5.9826,13.2991,4.59922,2453.537,38.4870
2024-01-26T15:00:49,2420,42.8014,5.9826,13.2991,4.59920,2453.537,38.4868
2024-01-26T15:03:49,2420,42.8014,5.9826,13.2991,4.59917,2453.499,38.4866
2024-01-26T15:06:49,2420,42.8014,5.9826,13.2990,4.59921,2453.559,38.4870
2024-01-26T15:09:49,2420,42.8014,5.9826,13.2993,4.59926,2453.514,38.4872
2024-01-26T15:12:49,2420,42.8014,5.9826,13.2988,4.59920,2453.499,38.4871
2024-01-26T15:15:49,2420,42.8014,5.9826,13.2993,4.59922,2453.528,38.4868
2024-01-26T15:18:49,2420,42.8014,5.9826,13.2988,4.59917,2453.514,38.4869
2024-01-26T15:21:49,2420,42.8014,5.9826,13.2990,4.59922,2453.514,38.4872
2024-01-26T15:24:49,2420,42.8014,5.9826,13.2986,4.59920,2453.537,38.4873
2024-01-26T15:27:49,2420,42.8014,5.9826,13.2989,4.59919,2453.537,38.4869
2024-01-26T15:30:49,2420,42.8014,5.9826,13.2991,4.59919,2453.514,38.4868
2024-01-26T15:33:49,2420,42.8014,5.9826,13.2991,4.59920,2453.559,38.4868
2024-01-26T15:36:49,2420,42.8014,5.9826,13.2989,4.59919,2453.537,38.4869
2024-01-26T15:39:49,2420,42.8014,5.9826,13.2990,4.59917,2453.514,38.4867
2024-01-26T15:42:49,2420,42.8014,5.9826,13.2988,4.59917,2453.537,38.4869
2024-01-26T15:45:49,2420,42.8014,5.9826,13.2993,4.59921,2453.559,38.4868
2024-01-26T15:48:49,2420,42.8014,5.9826,13.2988,4.59918,2453.514,38.4870
2024-01-26T15:51:49,2420,42.8014,5.9826,13.2992,4.59917,2453.537,38.4865
2024-01-26T15:54:49,2420,42.8014,5.9826,13.2991,4.59920,2453.514,38.4868
2024-01-26T15:57:49,2420,42.8014,5.9826,13.2991,4.59917,2453.537,38.4866
2024-01-26T16:00:49,2420,42.8014,5.9826,13.2992,4.59918,2453.537,38.4866
2024-01-26T16:03:49,2420,42.8014,5.9826,13.2990,4.59917,2453.537,38.4867
2024-01-26T16:06:49,2420,42.8014,5.9826,13.2990,4.59917,2453.537,38.4866
2024-01-26T16:09:49,2420,42.8014,5.9826,13.2991,4.59920,2453.537,38.4868
2024-01-26T16:12:49,2420,42.8014,5.9826,13.2993,4.59920,2453.514,38.4867
2024-01-26T16:15:49,2420,42.8014,5.9826,13.2989,4.59917,2453.544,38.4868
2024-01-26T16:18:49,2420,42.8014,5.9826,13.2989,4.59918,2453.582,38.4868
2024-01-26T16:21:49,2420,42.8014,5.9826,13.2993,4.59922,2453.537,38.4869
2024-01-26T16:24:49,2420,42.8014,5.9826,13.2993,4.59918,2453.537,38.4865
2024-01-26T16:27:50,2420,42.8014,5.9826,13.2992,4.59919,2453.528,38.4866
2024-01-26T16:30:49,2420,42.8014,5.9826,13.2991,4.59918,2453.537,38.4867
2024-01-26T16:33:49,2420,42.8014,5.9826,13.2987,4.59918,2453.582,38.4871
2024-01-26T16:36:49,2420,42.8014,5.9826,13.2989,4.59920,2453.537,38.4870
2024-01-26T16:39:49,2420,42.8014,5.9826,13.2994,4.59922,2453.559,38.4867
2024-01-26T16:42:49,2420,42.8014,5.9826,13.2988,4.59920,2453.537,38.4871
2024-01-26T16:45:49,2420,42.8014,5.9826,13.2989,4.59918,2453.537,38.4869
2024-01-26T16:48:49,2420,42.8014,5.9826,13.2990,4.59919,2453.559,38.4868
2024-01-26T16:51:49,2420,42.8014,5.9826,13.2987,4.59920,2453.544,38.4873
2024-01-26T16:54:49,2420,42.8014,5.9826,13.2991,4.59920,2453.559,38.4868
2024-01-26T16:57:49,2420,42.8014,5.9826,13.2995,4.59920,2453.582,38.4865
2024-01-26T17:00:50,2420,42.8014,5.9826,13.2989,4.59917,2453.559,38.4867
2024-01-26T17:03:49,2420,42.8014,5.9826,13.2990,4.59920,2453.574,38.4870
2024-01-26T17:06:49,2420,42.8014,5.9826,13.2987,4.59919,2453.559,38.4871
2024-01-26T17:09:49,2420,42.8014,5.9826,13.2993,4.59919,2453.582,38.4866
2024-01-26T17:12:49,2420,42.8014,5.9826,13.2991,4.59917,2453.582,38.4866
2024-01-26T17:15:49,2420,42.8014,5.9826,13.2989,4.59919,2453.604,38.4869
2024-01-26T17:18:49,2420,42.8014,5.9826,13.2991,4.59917,2453.582,38.4866
2024-01-26T17:21:49,2420,42.8014,5.9826,13.2990,4.59917,2453.582,38.4867
2024-01-26T17:24:49,2420,42.8014,5.9826,13.2991,4.59918,2453.582,38.4866
2024-01-26T17:27:49,2420,42.8014,5.9826,13.2991,4.59918,2453.582,38.4867
2024-01-26T17:30:49,2420,42.8014,5.9826,13.2991,4.59918,2453.582,38.4866
2024-01-26T17:33:49,2420,42.8014,5.9826,13.2992,4.59920,2453.567,38.4867
2024-01-26T17:36:49,2420,42.8014,5.9826,13.2991,4.59918,2453.590,38.4866
2024-01-26T17:39:49,2420,42.8014,5.9826,13.2991,4.59917,2453.567,38.4866
2024-01-26T17:42:49,2420,42.8014,5.9826,13.2991,4.59920,2453.582,38.4868
2024-01-26T17:45:49,2420,42.8014,5.9826,13.2992,4.59918,2453.604,38.4865
2024-01-26T17:48:49,2420,42.8014,5.9826,13.2992,4.59917,2453.604,38.4864
2024-01-26T17:51:49,2420,42.8014,5.9826,13.2991,4.59919,2453.627,38.4867
2024-01-26T17:54:49,2420,42.8014,5.9826,13.2990,4.59917,2453.604,38.4867
2024-01-26T17:57:49,2420,42.8014,5.9826,13.2990,4.59919,2453.604,38.4868
2024-01-26T18:00:49,2420,42.8014,5.9826,13.2996,4.59920,2453.582,38.4863
2024-01-26T18:03:49,2420,42.8014,5.9826,13.2991,4.59919,2453.604,38.4868
2024-01-26T18:06:49,2420,42.8014,5.9826,13.2990,4.59918,2453.604,38.4867
2024-01-26T18:09:49,2420,42.8014,5.9826,13.2990,4.59917,2453.604,38.4867
2024-01-26T18:12:49,2420,42.8014,5.9826,13.2990,4.59919,2453.567,38.4868
2024-01-26T18:15:49,2420,42.8014,5.9826,13.2990,4.59919,2453.627,38.4868
2024-01-26T18:18:49,2420,42.8014,5.9826,13.2991,4.59920,2453.627,38.4868
2024-01-26T18:21:50,2420,42.8014,5.9826,13.2991,4.59919,2453.604,38.4868
2024-01-26T18:24:49,2420,42.8014,5.9826,13.2989,4.59920,2453.612,38.4870
2024-01-26T18:27:49,2420,42.8014,5.9826,13.2992,4.59920,2453.604,38.4867
2024-01-26T18:30:49,2420,42.8014,5.9826,13.2993,4.59917,2453.649,38.4863
2024-01-26T18:33:49,2420,42.8014,5.9826,13.2991,4.59918,2453.627,38.4867
2024-01-26T18:36:49,2420,42.8014,5.9826,13.2990,4.59918,2453.627,38.4867
2024-01-26T18:39:49,2420,42.8014,5.9826,13.2992,4.59920,2453.627,38.4867
2024-01-26T18:42:49,2420,42.8014,5.9826,13.2988,4.59918,2453.627,38.4869
2024-01-26T18:45:49,2420,42.8014,5.9826,13.2991,4.59919,2453.627,38.4867
2024-01-26T18:48:49,2420,42.8014,5.9826,13.2993,4.59917,2453.627,38.4863
2024-01-26T18:51:49,2420,42.8014,5.9826,13.2987,4.59917,2453.604,38.4869
2024-01-26T18:54:49,2420,42.8014,5.9826,13.2993,4.59917,2453.627,38.4864
2024-01-26T18:57:49,2420,42.8014,5.9826,13.2989,4.59919,2453.604,38.4869
2024-01-26T19:00:49,2420,42.8014,5.9826,13.2993,4.59920,2453.627,38.4866
2024-01-26T19:03:49,2420,42.8014,5.9826,13.2992,4.59917,2453.604,38.4865
2024-01-26T19:06:49,2420,42.8014,5.9826,13.2993,4.59919,2453.612,38.4865
2024-01-26T19:09:49,2420,42.8014,5.9826,13.2986,4.59917,2453.649,38.4870
2024-01-26T19:12:49,2420,42.8014,5.9826,13.2991,4.59920,2453.649,38.4868
2024-01-26T19:15:49,2420,42.8014,5.9826,13.2988,4.59917,2453.641,38.4868
2024-01-26T19:18:49,2420,42.8014,5.9826,13.2993,4.59919,2453.649,38.4865
2024-01-26T19:21:49,2420,42.8014,5.9826,13.2991,4.59917,2453.635,38.4866
2024-01-26T19:24:50,2420,42.8014,5.9826,13.2986,4.59917,2453.604,38.4870
2024-01-26T19:27:49,2420,42.8014,5.9826,13.2989,4.59918,2453.649,38.4868
2024-01-26T19:30:49,2420,42.8014,5.9826,13.2993,4.59919,2453.627,38.4865
2024-01-26T19:33:49,2420,42.8014,5.9826,13.2991,4.59917,2453.604,38.4866
2024-01-26T19:36:49,2420,42.8014,5.9826,13.2986,4.59919,2453.635,38.4872
2024-01-26T19:39:49,2420,42.8014,5.9826,13.2991,4.59918,2453.649,38.4866
2024-01-26T19:42:49,2420,42.8014,5.9826,13.2991,4.59918,2453.604,38.4867
2024-01-26T19:45:49,2420,42.8014,5.9826,13.2989,4.59919,2453.649,38.4869
2024-01-26T19:48:49,2420,42.8014,5.9826,13.2992,4.59917,2453.649,38.4864
2024-01-26T19:51:49,2420,42.8014,5.9826,13.2989,4.59917,2453.619,38.4868
2024-01-26T19:54:49,2420,42.8014,5.9826,13.2993,4.59917,2453.649,38.4863
2024-01-26T19:57:49,2420,42.8014,5.9826,13.2985,4.59917,2453.627,38.4871
2024-01-26T20:00:49,2420,42.8014,5.9826,13.2991,4.59919,2453.604,38.4867
2024-01-26T20:03:49,2420,42.8014,5.9826,13.2992,4.59917,2453.627,38.4865
2024-01-26T20:06:49,2420,42.8014,5.9826,13.2995,4.59917,2453.619,38.4861
2024-01-26T20:09:49,2420,42.8014,5.9826,13.2996,4.59917,2453.612,38.4861
2024-01-26T20:12:49,2420,42.8014,5.9826,13.2988,4.59919,2453.604,38.4871
2024-01-26T20:15:49,2420,42.8014,5.9826,13.2990,4.59917,2453.604,38.4866
2024-01-26T20:18:49,2420,42.8014,5.9826,13.2986,4.59917,2453.627,38.4870
2024-01-26T20:21:49,2420,42.8014,5.9826,13.2993,4.59919,2453.627,38.4865
2024-01-26T20:24:50,2420,42.8014,5.9826,13.2992,4.59921,2453.627,38.4868
2024-01-26T20:27:49,2420,42.8014,5.9826,13.2990,4.59917,2453.604,38.4867
2024-01-26T20:30:49,2420,42.8014,5.9826,13.2992,4.59917,2453.627,38.4864
2024-01-26T20:33:49,2420,42.8014,5.9826,13.2993,4.59917,2453.604,38.4863
2024-01-26T20:36:49,2420,42.8014,5.9826,13.2993,4.59919,2453.604,38.4865
2024-01-26T20:39:49,2420,42.8014,5.9826,13.2986,4.59919,2453.582,38.4872
2024-01-26T20:42:49,2420,42.8014,5.9826,13.2985,4.59917,2453.649,38.4872
2024-01-26T20:45:49,2420,42.8014,5.9826,13.2990,4.59917,2453.604,38.4866
2024-01-26T20:48:49,2420,42.8014,5.9826,13.2989,4.59922,2453.582,38.4872
2024-01-26T20:51:49,2420,42.8014,5.9826,13.2989,4.59919,2453.604,38.4869
2024-01-26T20:54:49,2420,42.8014,5.9826,13.2993,4.59918,2453.604,38.4865
2024-01-26T20:57:49,2420,42.8014,5.9826,13.2992,4.59918,2453.582,38.4865
2024-01-26T21:00:49,2420,42.8014,5.9826,13.2991,4.59917,2453.604,38.4866
2024-01-26T21:03:49,2420,42.8014,5.9826,13.2990,4.59918,2453.559,38.4868
2024-01-26T21:06:49,2420,42.8014,5.9826,13.2993,4.59918,2453.537,38.4865
2024-01-26T21:09:49,2420,42.8014,5.9826,13.2992,4.59917,2453.559,38.4865
2024-01-26T21:12:49,2420,42.8014,5.9826,13.2989,4.59917,2453.537,38.4867
2024-01-26T21:15:49,2420,42.8014,5.9826,13.2990,4.59917,2453.559,38.4867
2024-01-26T21:18:49,2420,42.8014,5.9826,13.2988,4.59918,2453.604,38.4869
2024-01-26T21:21:49,2420,42.8014,5.9826,13.2991,4.59917,2453.582,38.4866
2024-01-26T21:24:49,2420,42.8014,5.9826,13.2991,4.59916,2453.604,38.4865
2024-01-26T21:27:49,2420,42.8014,5.9826,13.2989,4.59916,2453.604,38.4866
2024-01-26T21:30:49,2420,42.8014,5.9826,13.2991,4.59919,2453.582,38.4867
2024-01-26T21:33:49,2420,42.8014,5.9826,13.2991,4.59917,2453.559,38.4866
2024-01-26T21:36:49,2420,42.8014,5.9826,13.2991,4.59916,2453.559,38.4865
2024-01-26T21:39:49,2420,42.8014,5.9826,13.2989,4.59918,2453.537,38.4869
2024-01-26T21:42:49,2420,42.8014,5.9826,13.2988,4.59917,2453.604,38.4869
2024-01-26T21:45:49,2420,42.8014,5.9826,13.2992,4.59917,2453.559,38.4864
2024-01-26T21:48:49,2420,42.8014,5.9826,13.2992,4.59917,2453.559,38.4865
2024-01-26T21:51:49,2420,42.8014,5.9826,13.2993,4.59917,2453.582,38.4863
2024-01-26T21:54:49,2420,42.8014,5.9826,13.2990,4.59919,2453.559,38.4868
2024-01-26T21:57:49,2420,42.8014,5.9826,13.2990,4.59919,2453.559,38.4868
2024-01-26T22:00:49,2420,42.8014,5.9826,13.2990,4.59918,2453.559,38.4868
2024-01-26T22:03:49,2420,42.8014,5.9826,13.2991,4.59918,2453.544,38.4866
2024-01-26T22:06:49,2420,42.8014,5.9826,13.2988,4.59916,2453.559,38.4868
2024-01-26T22:09:49,2420,42.8014,5.9826,13.2988,4.59917,2453.559,38.4868
2024-01-26T22:12:49,2420,42.8014,5.9826,13.2988,4.59917,2453.522,38.4869
2024-01-26T22:15:49,2420,42.8014,5.9826,13.2991,4.59917,2453.559,38.4866
2024-01-26T22:18:49,2420,42.8014,5.9826,13.2994,4.59916,2453.537,38.4862
2024-01-26T22:21:49,2420,42.8014,5.9826,13.2991,4.59919,2453.522,38.4867
2024-01-26T22:24:49,2420,42.8014,5.9826,13.2989,4.59917,2453.559,38.4867
2024-01-26T22:27:49,2420,42.8014,5.9826,13.2994,4.59917,2453.559,38.4863
2024-01-26T22:30:49,2420,42.8014,5.9826,13.2993,4.59917,2453.537,38.4863
2024-01-26T22:33:49,2420,42.8014,5.9826,13.2994,4.59917,2453.537,38.4863
2024-01-26T22:36:49,2420,42.8014,5.9826,13.2991,4.59918,2453.537,38.4866
2024-01-26T22:39:49,2420,42.8014,5.9826,13.2989,4.59916,2453.574,38.4866
2024-01-26T22:42:49,2420,42.8014,5.9826,13.2990,4.59917,2453.522,38.4867
2024-01-26T22:45:49,2420,42.8014,5.9826,13.2992,4.59919,2453.514,38.4866
2024-01-26T22:48:49,2420,42.8014,5.9826,13.2991,4.59917,2453.559,38.4866
2024-01-26T22:51:49,2420,42.8014,5.9826,13.2992,4.59919,2453.559,38.4866
2024-01-26T22:54:49,2420,42.8014,5.9826,13.2993,4.59917,2453.537,38.4863
2024-01-26T22:57:49,2420,42.8014,5.9826,13.2987,4.59918,2453.537,38.4871
2024-01-26T23:00:49,2420,42.8014,5.9826,13.2991,4.59917,2453.537,38.4866
2024-01-26T23:03:49,2420,42.8014,5.9826,13.2996,4.59917,2453.514,38.4861
2024-01-26T23:06:49,2420,42.8014,5.9826,13.2991,4.59917,2453.499,38.4866
2024-01-26T23:09:49,2420,42.8014,5.9826,13.2988,4.59917,2453.499,38.4868
2024-01-26T23:12:49,2420,42.8014,5.9826,13.2991,4.59917,2453.537,38.4866
2024-01-26T23:15:49,2420,42.8014,5.9826,13.2990,4.59917,2453.514,38.4867
2024-01-26T23:18:49,2420,42.8014,5.9826,13.2991,4.59917,2453.491,38.4867
2024-01-26T23:21:50,2420,42.8014,5.9826,13.2990,4.59918,2453.514,38.4868
2024-01-26T23:24:49,2420,42.8014,5.9826,13.2992,4.59917,2453.491,38.4865
2024-01-26T23:27:49,2420,42.8014,5.9826,13.2989,4.59917,2453.499,38.4868
2024-01-26T23:30:49,2420,42.8014,5.9826,13.2991,4.59919,2453.514,38.4868
2024-01-26T23:33:49,2420,42.8014,5.9826,13.2991,4.59917,2453.514,38.4866
2024-01-26T23:36:49,2420,42.8014,5.9826,13.2988,4.59917,2453.491,38.4869
2024-01-26T23:39:49,2420,42.8014,5.9826,13.2986,4.59920,2453.491,38.4874
2024-01-26T23:42:49,2420,42.8014,5.9826,13.2989,4.59917,2453.514,38.4868
2024-01-26T23:45:49,2420,42.8014,5.9826,13.2988,4.59918,2453.514,38.4870
2024-01-26T23:48:49,2420,42.8014,5.9826,13.2993,4.59918,2453.491,38.4865
2024-01-26T23:51:49,2420,42.8014,5.9826,13.2989,4.59917,2453.477,38.4868
2024-01-26T23:54:49,2420,42.8014,5.9826,13.2989,4.59918,2453.469,38.4869
2024-01-26T23:57:49,2420,42.8014,5.9826,13.2993,4.59920,2453.491,38.4867
